Regional Weather Roundup
Issued by NWS

Home | Current Version | Previous Version | Text Only | Print | Product List | Glossary Off
Versions: 1 2 3 4 5 6 7 8 9 10 11 12 13 14 15 16 17 18 19 20 21 22 23 24 25 26 27 28 29 30 31 32 33 34 35 36 37 38 39 40 41 42 43 44 45 46 47 48 49 50

471
ASUS43 KDMX 302008
RWRIA

WEATHER ROUNDUP FOR IOWA
NATIONAL WEATHER SERVICE DES MOINES IA
300 PM CDT SAT JUL 30 2016

NOTE: "FAIR" INDICATES FEW OR NO CLOUDS BELOW 12,000 FEET WITH NO
SIGNIFICANT WEATHER AND/OR OBSTRUCTIONS TO VISIBILITY.

* - THESE STATIONS ARE NOT NWS STATIONS...THUS NOT UNDER NWS
QUALITY CONTROL.  THEY ALSO DO NOT REPORT WEATHER SUCH
AS PRECIPITATION OR FOG.

IAZ001>003-012>014-020>022-031>034-043>046-302100-
   NORTHWEST IOWA

CITY           SKY/WX    TMP DP  RH WIND       PRES   REMARKS
CARROLL *      MOSUNNY   79  64  61 VRB3      30.00F HX  81
CHEROKEE *     PTSUNNY   80  60  50 SE5       30.00S HX  81
DENISON *      SUNNY     77  66  69 VRB5      29.98F
LE MARS *      MOSUNNY   81  59  47 SE9       30.00S HX  81
SHELDON *      MOSUNNY   77  61  57 SE8       29.99F
SIOUX CITY     PTSUNNY   79  62  56 S9        29.98F HX  80
SPENCER        MOSUNNY   79  59  50 S10       30.01F HX  80
STORM LAKE *     N/A     79  64  61 SE6       30.01F HX  81
$$

IAZ055>058-069>071-079>083-090>094-302100-
   SOUTHWEST IOWA

CITY           SKY/WX    TMP DP  RH WIND       PRES   REMARKS
ATLANTIC *     PTSUNNY   79  64  61 SE8       30.00F HX  81
CLARINDA *       N/A     79  66  65 MISG      30.02F HX  81
COUNCIL BLFS * MOSUNNY   77  66  69 SE8       30.00F
CRESTON *      CLOUDY    77  64  65 SE5       30.03F
HARLAN  *      MOSUNNY   79  64  61 VRB6      30.04S HX  81
LAMONI         CLOUDY    78  66  66 VRB6      30.02S HX  80
RED OAK *      PTSUNNY   77  66  69 VRB7      30.00F
SHENANDOAH *   CLOUDY    79  68  69 SE9       30.00F HX  81
$$

IAZ047>049-059>061-072>074-084-302100-
   CENTRAL IOWA

CITY           SKY/WX    TMP DP  RH WIND       PRES   REMARKS
AMES           PTSUNNY   79  67  66 CALM      30.00F HX  81
ANKENY *         N/A    N/A N/A N/A MISG        N/A
BOONE *        MOSUNNY   81  64  57 CALM      30.00F HX  82
CHARITON *       N/A    N/A N/A N/A MISG        N/A
DES MOINES     PTSUNNY   82  64  54 VRB3      29.99F HX  83
GRINNELL*      PTSUNNY   77  65  68 CALM      30.02S
KNOXVILLE *    PTSUNNY   77  66  69 CALM      29.99F
MARSHALLTOWN   CLOUDY    78  66  66 CALM      30.00F HX  80
NEWTON *       CLOUDY    77  66  69 CALM      30.00F
PELLA *        SUNNY     78  66  66 CALM      30.01F HX  80
PERRY *          N/A     80  66  62 CALM      30.00F HX  82
$$

IAZ004>006-015-016-023>025-035-036-302100-
   NORTH CENTRAL IOWA

CITY           SKY/WX    TMP DP  RH WIND       PRES   REMARKS
ALGONA *       CLOUDY    75  64  69 CALM      30.02F
ESTHERVILLE    MOSUNNY   77  62  59 S5        30.01F
FORT DODGE *   MOSUNNY   79  64  61 CALM      30.01F HX  81
MASON CITY     PTSUNNY   79  64  60 SE7       30.02F HX  81
FOREST CITY *  CLOUDY    72  64  78 W6        30.02R
IOWA FALLS *     N/A     80  64  58 E5        30.02F HX  82
$$

IAZ007>011-017>019-026>030-037>042-050>054-066-302100-
   NORTHEAST IOWA

CITY           SKY/WX    TMP DP  RH WIND       PRES   REMARKS
CEDAR RAPIDS   PTSUNNY   77  68  73 W3        29.98F
CHARLES CITY * MOSUNNY   79  66  65 MISG      30.02S HX  81
CLINTON *      MOSUNNY   81  68  64 E8        29.99F HX  84
DECORAH *      MOSUNNY   77  64  65 E8        30.01F
DUBUQUE          N/A    N/A N/A N/A MISG      30.01F
MONTICELLO *   MOSUNNY   79  66  65 NE7       29.99F HX  81
OELWEIN *      CLOUDY    77  66  69 VRB5      30.02S
WATERLOO       PTSUNNY   77  65  66 E7        29.99F
$$

IAZ064-065-067-068-078-302100-
   EAST CENTRAL IOWA

CITY           SKY/WX    TMP DP  RH WIND       PRES   REMARKS
DAVENPORT      MOSUNNY   78  68  71 E5        29.99F HX  80
IOWA CITY      CLOUDY    80  65  59 CALM      29.99F HX  82
MT. PLEASANT * CLOUDY    79  70  73 CALM      29.99S HX  82
MUSCATINE *    MOSUNNY   82  63  51 CALM      29.98F HX  83
QUAD CITIES    PTSUNNY   80  64  58 NE9       29.97F HX  82
$$

IAZ062-063-075>077-085>089-095>099-302100-
   SOUTHEAST IOWA

CITY           SKY/WX    TMP DP  RH WIND       PRES   REMARKS
BURLINGTON     CLOUDY    78  68  71 VRB5      29.99R HX  80
FAIRFIELD *    PTSUNNY   79  64  61 CALM      30.00S HX  81
KEOKUK *       PTSUNNY   79  66  65 W6        29.99S HX  81
CENTERVILLE *    N/A     81  66  61 CALM      30.02F HX  83
OTTUMWA        MOSUNNY   78  65  63 N5        30.00F HX  80
WASHINGTON *   PTSUNNY   77  68  73 N7        30.00S
$$

ABBREVIATIONS USED IN REMARKS
   TC - TEMPERATURES IN CELSIUS
  WCI - WIND CHILL INDEX
   HX - HEAT INDEX
  VSB - VISIBILITY
$$





USA.gov is the U.S. government's official web portal to all federal, state and local government web resources and services.